DMSP 5D-2 F13 DEB

Satellite information

Favourite Embed

Satellite Type and Status

DEBRISIN ORBIT

Key statistics

Satellite DMSP 5D-2 F13 DEB at a glance.

Uptime

11222

Days in orbit

Revolutions

≈ 14.4

Per day

Orbit

SSO

Sun Synchronous Orbit

Inclination

98.6

Latest

Satellite identification and parameters

Extended collection of information and parameters for DMSP 5D-2 F13 DEB.

Object identification

Identified? True

Debris? True

Object name: DMSP 5D-2 F13 DEB

International designator: 1995-015DT

Object number (NORAD): 40560

Object ID (CCSDS): 40560

Country: UNITED STATES OF AMERICA (US)

Current information (Y/N): Y

RCS size: SMALL

Orbital parameters

Period: 99.785 minutes

Inclination: 98.6146 deg

SMA: 7126.379 km

Apoapsis: 756.013 km

Periapsis: 740.475 km

RAAN: 22.7383 deg

Eccentricy: 0.0010902

Argument of periapsis: 66.1603 deg

Mean anomaly: 294.0728 deg

Mean motion: 14.43109863 rev/day

Mean motion (dot): 0.00009681 rev/day2

B* drag term: 0.0028923 1/REarth

Two-line elements (TLE)

Creation date: Dec. 12, 2025, 7:16 a.m.

Reference frame: TEME

Reference center: EARTH

Epoch: Dec. 11, 2025, 11:02 p.m. UTC

TLE line 0: 0 DMSP 5D-2 F13 DEB

TLE line 1: 1 40560U 95015DT 25345.95996463 .00009681 00000-0 28923-2 0 9995

TLE line 2: 2 40560 98.6146 22.7383 0010902 66.1603 294.0728 14.43109863556401

Live tracking on map

Real-time ground track for satellite DMSP 5D-2 F13 DEB.

In-orbit conjunctions

A list of the most updated potential collisions computed for object DMSP 5D-2 F13 DEB.

Target Orbit TCA Probability of collision Miss distance Type
THOR BURNER 2 R/B SSO 2024-11-14 19:35:57 0.0003615603 66.0 (m) ROCKET BODY
COSMOS 2251 DEB LEO 2024-11-10 18:17:54 0.001724348 328.0 (m) DEBRIS
COSMOS 2251 DEB LEO 2024-09-26 14:53:00 0.0001977186 826.0 (m) DEBRIS
CZ-6 R/B LEO 2024-09-02 16:49:46 0.0001689812 585.0 (m) ROCKET BODY

Associated space launch

Military meteorological satellite

DMSP 5D-2 F13 DEB was lifted into orbit during the mission ‘Atlas E | DMSP-5D2 F13’, on board a Atlas E space rocket.

The launch took place on March 24, 1995, 2:05 p.m. from Space Launch Complex 3W.

For more information about the launch, click the button.

Launch to space Atlas E | DMSP-5D2 F13
Atlas E | DMSP-5D2 F13

Agency: N/A

Status: Launch Successful

Launch date: March 24, 1995, 2:05 p.m. UTC

Rocket: Atlas E

Launch pad: Space Launch Complex 3W

Location: Vandenberg SFB, CA, USA

...

Latest news about this satellite

There are no fresh news available about this satellite. Check back as we update our databases every day.


Newsletter sign-up

Weekly statistics, charts and insights to help you stay on top of the space industry.